Location: Champs
(48.8539°N, 2.6040°E)
Time: 12:28:45
(UTC+00:00)

Cosmos 1538 Rocket - Pass Details

Date: 31 May 2022
Orbit: 752 x 791 km, 74.0° (Epoch: 28 June)

Event Time Altitude Azimuth Distance (km) Brightness Sun altitude
Rises 21:37:42 0° 328° (NNW) 3,244 9.3 -13.5°
Reaches altitude 10° 21:40:21 10° 318° (NW) 2,307 7.8 -13.7°
Maximum altitude 21:44:47 29° 260° (W) 1,369 5.5 -14.0°
Drops below altitude 10° 21:49:11 10° 201° (SSW) 2,276 6.1 -14.4°
Enters shadow 21:49:22 - 200° (SSW) 2,340 6.1 -14.4°
